Location: Thompson
(55.7500°N, 97.8670°W)
Time: 00:20:49
(UTC-05:00)

Cosmos 1666 - Visible Passes

Search period start: 24 April 2017 00:00
Search period end: 04 May 2017 00:00
Orbit: 502 x 524 km, 82.5° (Epoch: 22 April)

Date Brightness Start Highest point End Pass type
(mag) Time Alt. Az. Time Alt. Az. Time Alt. Az.
24 Apr 4.1 00:57:30 10° N 01:00:58 30° ENE 01:01:49 27° E visible
24 Apr 3.6 02:33:09 10° NNW 02:36:41 33° W 02:36:46 33° W visible
25 Apr 4.3 00:41:51 10° N 00:45:10 26° ENE 00:46:11 23° E visible
25 Apr 3.4 02:17:20 10° NNW 02:21:00 40° W 02:21:09 39° W visible
26 Apr 4.5 00:26:15 10° N 00:29:22 22° ENE 00:30:34 19° E visible
26 Apr 3.1 02:01:32 10° NNW 02:05:17 47° W 02:05:32 46° WSW visible
27 Apr 4.7 00:10:38 10° NNE 00:13:32 20° ENE 00:14:58 16° E visible
27 Apr 2.8 01:45:45 10° NNW 01:49:34 57° W 01:49:55 54° WSW visible
27 Apr 4.9 23:55:04 10° NNE 23:57:42 17° ENE 23:59:21 14° E visible
28 Apr 2.7 01:29:58 10° NNW 01:33:50 68° W 01:34:19 60° SW visible
28 Apr 5.0 23:39:33 10° NNE 23:41:51 15° ENE 23:43:45 11° E visible
29 Apr 2.6 01:14:13 10° NNW 01:18:06 82° W 01:18:43 61° S visible
29 Apr 5.1 02:52:03 10° WNW 02:53:02 11° W 02:53:40 11° W visible
29 Apr 5.1 23:24:07 10° NNE 23:25:59 13° ENE 23:27:50 10° E visible
30 Apr 2.6 00:58:27 10° N 01:02:21 84° ENE 01:03:07 56° SSE visible
30 Apr 5.0 02:35:39 10° NW 02:37:24 13° W 02:38:04 12° W visible
30 Apr 5.2 23:08:49 10° NE 23:10:06 11° NE 23:11:23 10° ENE visible
01 May 2.7 00:42:42 10° N 00:46:35 70° ENE 00:47:31 48° SE visible
01 May 4.8 02:19:31 10° NW 02:21:44 15° W 02:22:29 14° W visible
02 May 2.9 00:26:58 10° N 00:30:47 59° ENE 00:31:56 40° SE visible
02 May 4.7 02:03:28 10° NW 02:06:04 17° W 02:06:53 16° WSW visible
03 May 3.2 00:11:15 10° N 00:15:01 49° ENE 00:16:21 33° SE visible
03 May 4.5 01:47:30 10° NW 01:50:23 20° W 01:51:18 19° WSW visible
